NOAA 17 DEB, 49478

Orbit data source: Space-Track

NOAA 17 DEB, 49478 is space debris in SSO originally from a launch on Mon, 24 Jun 2002 UTC launched from the Air Force Western Test Range (AFWTR). Debris objects in space refer to the collection of defunct objects orbiting the Earth. Examples of debris include non-operational satellites, rocket bodies, and fragments generated from explosions, collisions, or faulty payload assembly.

Loading next visibility...
Identifier
49478, 2002-032DG
Orbit
SSO
Country
Flag of USUS
Related business
Manufacturer
Unknown
Mission
Spacecraft
Bus & Motor
Unknown
Mass
Unknown
Launch date (UTC)
2002-06-24 (24 years ago)
Launch vehicle
Unknown
Launch site
Air Force Western Test Range (AFWTR)
Object type
Payload
Rocket body
Debris
Shape & HBR
Unknown shape, 0.1 m
Radar Cross Section
Small (<0.1 m²)

Expand to show TLE details & history
Last TLE update: 2 days ago

TLE from 2 days ago
0 NOAA 17 DEB
1 49478U 02032DG  26171.37571979  .00009600  00000-0  16903-2 0  9990
2 49478  98.8488 206.1868 0007638 154.8983 205.2592 14.67785615264830
Epoch: 2026-06-20T09:01Z
TLE epoch observation values (Epoch: 2026-06-20T09:01:02.189Z)
Latitude
-0.00004°
Longitude
162.33645°
Altitude
675.99 km
Speed
7.516 km/s
True Right ascension
13h 44m 44s
True Declination
0° 00' 00"
Sunlit
Object was in daylight at epoch
Visualization orbit readout
Latitude
Unknown
Longitude
Unknown
Altitude
Unknown
Speed
Unknown
Apparent Right ascension
Unknown
Apparent Declination
Unknown
Sunlit
N/A
Visualization observer readout
Local Sidereal Time
23:19:39
Azimuth
Unknown
Elevation
Unknown
Doppler factor
Unknown
Orbital elements
Apogee altitude
670.628 km
Perigee altitude
659.868 km
Semi-major axis
7,043.385 km
Eccentricity
0.00076
Inclination
98.8488°
RAAN
206.1868°
Arg. of periapsis
154.8983°
True anomaly
205.22188°
Mean anomaly
205.2592°
Eccentric anomaly
205.24054°
Mean motion
3.67173 °/min
Orbital period
98.05 mins
BSTAR
0.0016903
Loading maneuver chart data...
Computing Atmospheric mass density...

Documentation

Showing up to 5 results
|